This is the latest recevied weather packets stored in our database for station/object WX4LTG. If no packets are shown the sender has not sent any weather packets the latest 10 day(s).
| Time | Temp. | Humidity | Pressure | Rain* | Wind** | Luminosity | Snow |
|---|---|---|---|---|---|---|---|
| 1777164638 | 27.22° C | 21% | 1006.9 hPa | 0 mm | - | 78 W/m² | - |
| 1777164337 | 27.22° C | 21% | 1006.5 hPa | 0 mm | - | 69 W/m² | - |
| 1777164032 | 27.78° C | 20% | 1006.7 hPa | 0 mm | - | 68 W/m² | - |
| 1777163732 | 27.78° C | 19% | 1006.9 hPa | 0 mm | - | 77 W/m² | - |
| 1777163426 | 28.33° C | 18% | 1006.7 hPa | 0 mm | - | 158 W/m² | - |
| 1777163122 | 27.78° C | 18% | 1006.9 hPa | 0 mm | - | 148 W/m² | - |
| 1777162819 | 27.78° C | 18% | 1006.9 hPa | 0 mm | - | 95 W/m² | - |
| 1777162514 | 28.33° C | 18% | 1007 hPa | 0 mm | - | 84 W/m² | - |
| 1777162214 | 28.33° C | 18% | 1007.1 hPa | 0 mm | - | 176 W/m² | - |
| 1777161909 | 28.33° C | 19% | 1006.9 hPa | 0 mm | - | 173 W/m² | - |
| 1777161605 | 28.33° C | 19% | 1007.1 hPa | 0 mm | - | 101 W/m² | - |
| 1777161301 | 28.33° C | 18% | 1007 hPa | 0 mm | - | 240 W/m² | - |
| 1777160997 | 28.33° C | 17% | 1007 hPa | 0 mm | - | 187 W/m² | - |
| 1777160693 | 28.33° C | 17% | 1007 hPa | 0 mm | - | 347 W/m² | - |
| 1777160388 | 28.33° C | 17% | 1007.2 hPa | 0 mm | - | 371 W/m² | - |
| 1777160085 | 28.33° C | 18% | 1007.2 hPa | 0 mm | - | 396 W/m² | - |
| 1777159781 | 27.78° C | 18% | 1006.9 hPa | 0 mm | - | 305 W/m² | - |
| 1777159477 | 27.78° C | 18% | 1007.2 hPa | 0 mm | - | 143 W/m² | - |
| 1777159174 | 27.78° C | 18% | 1007.2 hPa | 0 mm | - | 129 W/m² | - |
| 1777158871 | 27.78° C | 18% | 1007.2 hPa | 0 mm | - | 132 W/m² | - |
| 1777158569 | 27.78° C | 18% | 1007.3 hPa | 0 mm | - | 134 W/m² | - |
| 1777158264 | 28.33° C | 18% | 1007.1 hPa | 0 mm | - | 183 W/m² | - |
| 1777157961 | 28.33° C | 18% | 1007.6 hPa | 0 mm | - | 313 W/m² | - |
| 1777157657 | 27.78° C | 19% | 1007.4 hPa | 0 mm | - | 195 W/m² | - |
| 1777157354 | 28.33° C | 18% | 1007.4 hPa | 0 mm | - | 454 W/m² | - |
* Rain latest hour (hover to see other rain measurements)
** Current wind speed in m/s (hover to see current wind gust speed)